Location: Angola by the Bay
(38.6709°N, 75.1746°W)
Time: 05:53:34
(UTC+00:00)

DIWATA 2B (PO-101) - Pass Details

Date: 07 December 2024
Orbit: 569 x 582 km, 98.1° (Epoch: 18 January)

Event Time Altitude Azimuth Distance (km) Brightness Sun altitude
Rises 22:26:37 0° 4° (N) 2,790 ? -9.2°
Reaches altitude 10° 22:28:51 10° 357° (N) 1,885 ? -9.6°
Maximum altitude 22:32:40 39° 288° (WNW) 864 ? -10.3°
Drops below altitude 10° 22:36:26 10° 219° (SW) 1,866 ? -11.0°
Sets 22:38:39 0° 212° (SSW) 2,757 ? -11.4°
